Weather History for Jefferson, NC

Change the Weather History Date:

Sunday, December 5, 1999

  Actual Average Record
Temperature  
Mean Temperature 47 °F -  
Max Temperature 57 °F 49 °F 68 °F (2001)
Min Temperature 37 °F 25 °F 1 °F (1974)
Degree Days  
Heating Degree Days 18    
Moisture  
Dew Point 40 °F    
Average Humidity 76    
Maximum Humidity 100    
Minimum Humidity 58    
Precipitation  
Precipitation 0.00 in - - ()
Sea Level Pressure  
Sea Level Pressure 30.13 in    
Wind  
Wind Speed 4 mph (SE)    
Max Wind Speed 13 mph    
Max Gust Speed 108 mph    
Visibility 10 miles    
Events      
Averages and records for this station are not official NWS values.
T = Trace of Precipitation, MM = Missing Value Source: NWS Daily Summary

Daily Weather History Graph

Daily Weather History Graph

Search for Another Location

Airport:

Trip Planner

Search our weather history database for the weather conditions in past years. The results will help you decide how hot, cold, wet, or windy it might be!

Date:

Astronomy

Dec. 05, 1999 Rise Set
Actual Time 7:22 AM EST 5:10 PM EST
Civil Twilight 6:53 AM EST 5:38 PM EST
Nautical Twilight 6:21 AM EST 6:10 PM EST
Astronomical Twilight 5:50 AM EST 6:41 PM EST
Moon 5:03 AM EST (12/5) 4:07 PM EST (12/5)
Length of Visible Light 10h 45m
Length of Day
9h 48m
Waning Crescent, 4% of the Moon is Illuminated
Dec 5
Waning Crescent
Dec 7
New
Dec 15
First Quarter
Dec 22
Full
Dec 29
Last Quarter

Hourly Weather History & Observations

Time (EST) Temp. Windchill Dew Point Humidity Pressure Visibility Wind Dir Wind Speed Gust Speed Precip Events Conditions
12:03 AM 39.2 °F 37.0 °F 39.2 °F 100% 30.26 in 10.0 mi South 3.5 mph - N/A   Clear
12:23 AM 41.0 °F - 41.0 °F 100% 30.25 in 10.0 mi Calm Calm - N/A   Clear
12:43 AM 41.0 °F - 39.2 °F 93% 30.24 in 10.0 mi Calm Calm - N/A   Clear
1:03 AM 39.2 °F - 37.4 °F 93% 30.24 in 7.0 mi Calm Calm - N/A   Clear
1:23 AM 37.4 °F 34.9 °F 37.4 °F 100% 30.23 in 5.0 mi SE 3.5 mph - N/A   Clear
1:43 AM 39.2 °F - 39.2 °F 100% 30.23 in 10.0 mi Calm Calm - N/A   Clear
2:03 AM 39.2 °F - 37.4 °F 93% 30.22 in 10.0 mi Calm Calm - N/A   Clear
2:23 AM 42.8 °F - 39.2 °F 87% 30.22 in 10.0 mi Calm Calm - N/A   Clear
2:43 AM 37.4 °F - 37.4 °F 100% 30.22 in 10.0 mi Calm Calm - N/A   Clear
3:03 AM 37.4 °F 33.8 °F 35.6 °F 93% 30.22 in 3.0 mi SE 4.6 mph - N/A   Clear
3:23 AM 37.4 °F 32.1 °F 35.6 °F 93% 30.22 in 4.0 mi SSE 6.9 mph - N/A   Clear
3:43 AM 41.0 °F 39.0 °F 39.2 °F 93% 30.21 in 10.0 mi South 3.5 mph - N/A   Clear
4:03 AM 41.0 °F 39.0 °F 37.4 °F 87% 30.21 in 10.0 mi SE 3.5 mph - N/A   Clear
4:23 AM 39.2 °F 37.0 °F 37.4 °F 93% 30.20 in 10.0 mi SE 3.5 mph - N/A   Clear
4:43 AM 37.4 °F 34.9 °F 37.4 °F 100% 30.20 in 10.0 mi SE 3.5 mph - N/A   Clear
5:03 AM 41.0 °F 38.0 °F 35.6 °F 81% 30.19 in 10.0 mi SE 4.6 mph - N/A   Clear
5:23 AM 41.0 °F 38.0 °F 35.6 °F 81% 30.19 in 10.0 mi SE 4.6 mph - N/A   Clear
5:43 AM 41.0 °F 37.1 °F 33.8 °F 76% 30.19 in 10.0 mi SE 5.8 mph - N/A   Clear
6:03 AM 41.0 °F 38.0 °F 33.8 °F 76% 30.18 in 10.0 mi ESE 4.6 mph - N/A   Clear
6:23 AM 37.4 °F 32.8 °F 33.8 °F 87% 30.18 in 10.0 mi SE 5.8 mph - N/A   Clear
6:43 AM 37.4 °F 34.9 °F 33.8 °F 87% 30.17 in 10.0 mi SE 3.5 mph - N/A   Clear
7:03 AM 37.4 °F 34.9 °F 33.8 °F 87% 30.17 in 10.0 mi SE 3.5 mph - N/A   Clear
7:23 AM 37.4 °F 34.9 °F 33.8 °F 87% 30.16 in 10.0 mi SSE 3.5 mph - N/A   Clear
7:43 AM 39.2 °F 35.9 °F 35.6 °F 87% 30.16 in 10.0 mi SSE 4.6 mph - N/A   Clear
8:03 AM 41.0 °F 39.0 °F 35.6 °F 81% 30.16 in 10.0 mi SSE 3.5 mph - N/A   Clear
8:23 AM 41.0 °F 39.0 °F 35.6 °F 81% 30.16 in 10.0 mi SE 3.5 mph - N/A   Clear
8:43 AM 41.0 °F 39.0 °F 35.6 °F 81% 30.16 in 10.0 mi ESE 3.5 mph - N/A   Clear
9:03 AM 42.8 °F 41.1 °F 37.4 °F 81% 30.15 in 10.0 mi ESE 3.5 mph - N/A   Clear
9:23 AM 46.4 °F 45.2 °F 41.0 °F 81% 30.15 in 10.0 mi ESE 3.5 mph - N/A   Clear
9:43 AM 46.4 °F 45.2 °F 39.2 °F 76% 30.15 in 10.0 mi NNE 3.5 mph - N/A   Clear
10:03 AM 48.2 °F - 39.2 °F 71% 30.16 in 10.0 mi East 4.6 mph - N/A   Clear
10:23 AM 51.8 °F - 42.8 °F 71% 30.15 in 10.0 mi SE 5.8 mph - N/A   Clear
10:43 AM 53.6 °F - 41.0 °F 62% 30.14 in 10.0 mi SE 5.8 mph 16.1 mph N/A   Clear
11:03 AM 53.6 °F - 41.0 °F 62% 30.13 in 10.0 mi ESE 4.6 mph - N/A   Clear
11:23 AM 53.6 °F - 41.0 °F 62% 30.12 in 10.0 mi SSE 9.2 mph - N/A   Clear
11:43 AM 55.4 °F - 41.0 °F 58% 30.12 in 10.0 mi SE 8.1 mph - N/A   Clear
12:03 PM 55.4 °F - 41.0 °F 58% 30.11 in 10.0 mi SE 8.1 mph 17.3 mph N/A   Clear
12:23 PM 55.4 °F - 41.0 °F 58% 30.09 in 10.0 mi SSE 10.4 mph 17.3 mph N/A   Clear
12:43 PM 55.4 °F - 41.0 °F 58% 30.08 in 10.0 mi SE 11.5 mph 21.9 mph N/A   Clear
1:03 PM 55.4 °F - 41.0 °F 58% 30.08 in 10.0 mi SE 11.5 mph 20.7 mph N/A   Clear
1:23 PM 57.2 °F - 42.8 °F 59% 30.06 in 10.0 mi SE 9.2 mph 18.4 mph N/A   Clear
1:39 PM 55.4 °F - 41.0 °F 58% 30.07 in 10.0 mi SE 12.7 mph 19.6 mph N/A   Clear
2:03 PM 55.4 °F - 42.8 °F 63% 30.06 in 10.0 mi SE 8.1 mph - N/A   Clear
2:23 PM 55.4 °F - 42.8 °F 63% 30.06 in 10.0 mi SE 6.9 mph - N/A   Clear
2:34 PM 57.2 °F - 42.8 °F 59% 30.05 in 10.0 mi SE 6.9 mph 16.1 mph N/A   Clear
3:03 PM 57.2 °F - 42.8 °F 59% 30.04 in 10.0 mi ESE 9.2 mph 21.9 mph N/A   Clear
3:23 PM 57.2 °F - 42.8 °F 59% 30.03 in 10.0 mi East 8.1 mph 18.4 mph N/A   Clear
3:43 PM 55.4 °F - 41.0 °F 58% 30.03 in 10.0 mi East 10.4 mph - N/A   Clear
4:03 PM 55.4 °F - 42.8 °F 63% 30.03 in 10.0 mi North 10.4 mph 19.6 mph N/A   Clear
4:23 PM 55.4 °F - 42.8 °F 63% 30.04 in 10.0 mi North 10.4 mph - N/A   Clear
4:43 PM 55.4 °F - 42.8 °F 63% 30.04 in 10.0 mi North - - N/A   Clear
5:03 PM 55.4 °F - 42.8 °F 63% 30.03 in 10.0 mi North - - N/A   Clear
5:23 PM 55.4 °F - 42.8 °F 63% 30.04 in 10.0 mi East 10.4 mph - N/A   Clear
5:43 PM 53.6 °F - 42.8 °F 67% 30.03 in 10.0 mi ESE 10.4 mph 108.2 mph N/A   Scattered Clouds
6:03 PM 53.6 °F - 42.8 °F 67% 30.03 in 10.0 mi SE 6.9 mph - N/A   Scattered Clouds
6:23 PM 53.6 °F - 44.6 °F 72% 30.02 in 10.0 mi ESE 5.8 mph - N/A   Mostly Cloudy
6:43 PM 53.6 °F - 44.6 °F 72% 30.02 in 10.0 mi SE 9.2 mph - N/A   Overcast
7:03 PM 53.6 °F - 44.6 °F 72% 30.01 in 10.0 mi ESE 8.1 mph 17.3 mph N/A   Overcast
7:23 PM 53.6 °F - 44.6 °F 72% 30.01 in 10.0 mi ESE 5.8 mph - N/A   Overcast
7:43 PM 53.6 °F - 44.6 °F 72% 30.01 in 10.0 mi ESE 4.6 mph - N/A   Overcast
8:03 PM 55.4 °F - 46.4 °F 72% 30.00 in 10.0 mi SSE 9.2 mph 16.1 mph N/A   Overcast
8:23 PM 51.8 °F - 46.4 °F 82% 29.99 in 10.0 mi ESE 10.4 mph 16.1 mph 0.00 in Rain Light Rain
8:43 PM 51.8 °F - 48.2 °F 88% 29.99 in 10.0 mi SE 6.9 mph - N/A   Overcast
9:03 PM 51.8 °F - 50.0 °F 94% 30.00 in 10.0 mi South 4.6 mph - 0.00 in Rain Rain
9:23 PM 50.0 °F - 50.0 °F 100% 30.00 in 5.0 mi SSE 6.9 mph - 0.00 in   Drizzle
9:43 PM 50.0 °F - 50.0 °F 100% 30.00 in 4.0 mi SE 4.6 mph - 0.01 in Rain Rain
10:03 PM 50.0 °F - 50.0 °F 100% 29.99 in 2.5 mi East 4.6 mph - 0.02 in Rain Rain
10:23 PM 50.0 °F - 50.0 °F 100% 29.99 in 4.0 mi NE 4.6 mph - 0.05 in Rain Rain
10:43 PM 50.0 °F - 50.0 °F 100% 29.98 in 7.0 mi East 8.1 mph - 0.07 in Rain Light Rain
11:03 PM 51.8 °F - 51.8 °F 100% 29.97 in 10.0 mi North 4.6 mph 19.6 mph 0.00 in Rain Light Rain
11:23 PM 51.8 °F - 51.8 °F 100% 29.97 in 7.0 mi NE 12.7 mph 100.1 mph 0.01 in Rain Rain
11:43 PM 50.0 °F - 50.0 °F 100% 29.96 in 7.0 mi North 9.2 mph - 0.05 in Rain Light Rain